Wind_Speed
10 6 5 8 10 11 12 14 15 15 14 14 16 18 20 23 24 16 10 11 15 19 15 11 15 17 18 19 20 23 24 25 26 28 30 31 33 36 39 42 46 51 55 55 54 54 55 56 58 59 61 62 59 55 55 56 55 54 52 51 50 50 49 47 46 44 42 39 36 36 38 38 37 34 30 28 27 27 28 29 32 34 36 39 40 40
7 6 9 12 10 10 11 14 16 16 15 15 18 20 19 23 24 15 8 11 14 18 16 13 16 18 19 19 19 21 23 24 26 28 29 31 33 36 40 43 48 53 55 55 54 55 57 58 59 59 61 62 59 56 55 56 56 55 53 52 51 51 48 45 42 40 37 34 32 32 34 36 36 32 28 28 27 24 25 28 31 32 34 37 38 39
6 9 12 10 10 10 11 14 15 16 15 16 19 21 21 24 23 14 8 11 13 16 17 13 16 20 20 19 17 19 22 23 26 28 29 30 33 37 41 45 50 54 55 55 56 57 58 58 59 61 62 62 60 57 56 56 56 56 55 55 53 51 48 43 39 35 33 31 29 28 30 32 33 30 26 26 27 26 25 27 31 33 34 35 36 38
8 12 11 9 10 10 11 12 13 15 16 16 19 21 23 25 22 14 11 12 11 16 17 13 17 21 17 15 17 19 21 23 26 28 29 31 35 38 43 47 51 55 56 56 57 57 57 58 60 62 63 63 61 58 57 57 57 58 57 56 55 52 47 41 36 33 31 29 28 28 28 29 30 28 25 24 26 28 29 29 31 33 35 34 34 37
10 12 11 11 11 11 11 11 12 15 16 17 20 23 24 23 19 16 16 15 14 14 12 14 19 17 11 15 20 21 22 24 25 27 29 32 35 39 44 49 53 56 57 57 57 57 56 58 61 62 62 62 62 60 59 58 58 59 58 57 55 52 45 38 34 32 30 28 27 28 28 28 28 27 24 24 24 27 29 30 30 33 35 33 33 35
9 11 12 12 12 12 12 12 13 15 16 17 19 22 23 21 17 16 16 17 17 13 10 15 14 9 12 19 22 23 23 23 24 27 30 32 35 41 46 50 55 57 57 57 57 55 56 59 61 62 62 62 62 61 60 58 58 59 58 57 55 49 41 35 33 31 29 28 26 27 28 27 28 27 25 25 26 26 27 29 31 35 36 34 33 34
6 8 11 13 13 13 14 13 13 15 17 16 18 22 22 18 16 15 14 15 16 14 14 12 7 10 21 23 22 26 24 22 25 27 30 33 38 44 48 52 56 56 55 56 56 55 57 60 62 63 63 63 62 61 60 59 58 58 58 56 52 45 38 33 31 31 30 27 26 26 27 27 28 28 26 25 28 29 28 29 32 35 37 37 37 37
4 5 9 14 14 14 15 15 15 16 16 16 18 21 22 17 13 12 12 14 14 16 16 8 6 14 22 24 26 27 23 23 28 30 32 37 42 46 49 53 55 54 55 56 55 56 59 62 64 64 63 62 61 60 59 58 57 57 56 53 48 40 35 32 30 30 29 27 26 26 26 26 26 28 28 26 28 31 31 31 33 35 36 37 38 40
5 5 7 12 15 15 17 16 15 16 16 18 19 21 23 17 11 9 10 13 14 16 14 6 5 9 16 24 26 23 23 26 30 33 36 40 43 46 50 53 52 53 55 56 56 58 60 64 65 64 63 61 61 59 58 57 56 55 53 49 43 36 32 31 30 29 29 27 26 26 26 25 24 25 27 27 28 31 34 35 36 37 38 38 39 40
6 6 6 11 15 17 19 17 15 16 18 20 20 22 22 16 11 6 7 14 13 11 8 4 4 6 13 23 22 19 25 29 32 36 38 39 42 46 50 50 51 53 55 56 57 59 61 64 65 63 62 60 59 58 57 56 55 53 49 46 41 34 30 30 30 29 28 27 26 25 26 26 24 24 25 27 27 30 34 36 38 40 41 42 43 43
9 7 5 10 14 16 19 18 16 18 19 21 23 24 22 15 9 3 4 12 10 6 4 5 6 9 10 17 20 22 27 30 34 37 37 38 42 46 48 48 51 54 55 57 58 60 62 64 64 62 60 58 58 58 57 56 54 51 45 42 39 35 31 30 31 30 28 27 25 24 25 26 25 24 24 25 26 28 31 35 38 40 42 44 45 47
11 8 6 9 13 16 19 19 17 18 20 21 23 26 22 13 7 1 2 6 3 5 5 5 13 15 10 15 22 26 29 31 34 35 34 37 43 47 48 49 53 55 56 58 59 61 63 63 62 60 58 58 58 58 57 56 53 48 43 39 37 35 32 31 32 33 31 29 27 24 24 24 25 25 25 25 25 26 29 32 35 38 41 42 44 46
12 10 6 9 14 16 19 20 16 16 18 20 22 26 19 8 6 3 1 2 3 8 11 12 19 17 15 20 26 26 29 31 33 33 34 40 47 48 49 51 54 56 57 58 59 61 62 61 60 59 57 58 58 58 57 55 52 47 42 38 37 35 33 32 32 32 32 31 28 25 24 23 24 25 25 25 25 25 26 29 32 35 38 40 41 43
13 10 6 10 13 16 21 20 15 15 17 19 22 24 14 4 4 4 4 3 3 13 24 22 17 13 16 26 29 25 27 31 32 33 37 45 49 49 50 53 55 56 57 58 59 60 60 59 59 58 57 57 58 58 57 55 51 45 42 39 38 36 35 33 33 31 30 30 28 25 24 23 22 24 25 25 25 25 25 26 28 30 33 36 37 39
11 8 8 10 12 16 21 20 16 15 15 16 19 19 12 5 2 2 4 3 5 18 30 21 7 10 20 28 28 24 28 33 33 35 41 48 50 50 52 54 55 57 56 57 59 59 58 58 58 57 56 57 57 57 56 53 49 44 41 40 39 39 37 35 34 33 30 29 28 25 23 23 22 23 24 25 25 25 24 25 26 27 29 31 33 35
8 8 10 10 11 16 20 19 18 14 11 14 16 15 14 8 2 6 9 11 11 13 18 13 11 21 28 26 24 23 29 34 34 39 45 48 49 51 53 55 55 55 56 57 58 57 57 57 56 56 55 56 56 56 55 51 46 43 40 40 40 39 38 36 34 34 32 29 28 26 24 23 22 22 23 23 24 24 24 24 25 25 27 28 29 30
9 11 10 8 11 16 19 19 18 14 12 13 13 14 16 10 5 8 10 11 8 4 8 13 20 32 32 23 23 27 32 35 36 41 47 48 49 51 53 54 54 54 54 55 55 56 57 56 56 55 55 56 56 55 54 49 44 41 40 39 39 39 37 35 33 33 32 30 27 25 24 23 23 22 22 22 22 23 24 25 25 25 25 26 26 27
11 11 8 7 11 17 18 18 16 14 14 13 11 14 16 9 6 8 7 5 2 2 7 12 21 33 28 19 26 31 32 37 39 42 47 47 48 51 52 52 52 52 53 53 54 55 56 56 56 55 55 55 55 54 53 47 42 40 39 39 39 38 37 35 33 32 32 31 27 24 23 22 23 23 22 22 21 22 23 24 25 26 26 26 26 27
11 9 7 8 13 17 18 17 15 14 14 14 13 15 15 8 5 7 6 4 3 2 5 11 19 27 24 20 27 31 33 40 42 43 46 47 48 51 51 51 51 52 52 53 54 55 56 57 56 55 55 55 55 54 52 47 41 39 38 38 38 38 37 36 34 32 30 30 28 24 22 21 22 22 23 23 22 21 23 24 26 26 25 25 25 25
12 8 7 10 15 17 17 16 15 15 15 15 15 15 14 9 6 8 6 5 4 2 4 9 14 22 24 23 27 33 38 43 43 45 47 47 50 51 50 51 51 52 53 53 54 55 56 56 56 55 54 55 54 54 52 46 40 39 38 39 39 38 37 35 34 32 29 28 27 24 22 21 21 22 23 23 23 23 24 24 24 23 22 20 19 19
12 9 9 12 16 18 17 15 16 17 16 16 17 15 14 12 10 10 10 10 7 4 1 2 9 24 28 23 28 38 42 43 45 47 48 49 51 51 50 51 52 52 53 53 54 55 56 56 56 55 54 54 54 54 52 45 40 39 39 39 40 39 38 35 33 32 28 26 24 22 21 21 21 22 23 24 25 24 22 21 20 19 18 16 14 13
12 12 14 14 16 18 18 16 15 16 16 17 20 19 18 17 13 8 6 9 9 8 5 2 8 27 31 26 35 44 42 44 46 46 48 50 51 51 51 52 52 52 53 54 54 55 55 56 55 54 54 54 53 53 51 44 39 39 40 40 41 40 38 35 32 30 27 24 23 21 20 20 21 22 24 24 23 21 20 18 17 16 14 12 11 11
14 14 14 16 17 17 16 14 12 14 16 17 19 22 22 21 16 8 5 8 9 12 13 6 8 24 34 34 41 44 42 45 46 45 48 50 51 52 52 52 52 52 53 54 54 54 54 55 55 54 54 53 53 52 50 44 39 39 40 40 40 40 38 35 30 27 25 22 21 20 19 20 21 23 23 22 20 18 17 15 13 11 10 9 9 10
15 13 14 19 21 17 14 12 11 12 15 17 20 23 24 24 22 16 14 16 14 16 15 6 8 24 39 41 43 43 42 43 43 45 49 50 52 53 52 52 52 52 53 54 54 54 54 54 54 54 53 53 52 52 49 43 38 39 40 40 40 39 36 33 28 24 22 20 19 19 19 21 22 23 22 19 17 14 12 11 9 8 7 8 9 9
12 12 15 17 17 14 11 10 10 14 18 21 23 23 23 24 22 18 18 16 12 16 14 8 10 31 45 43 42 41 40 41 42 45 49 50 52 53 52 53 52 52 53 53 53 53 53 53 54 53 53 53 52 51 49 43 38 38 39 39 40 38 34 30 25 22 20 18 18 18 20 21 21 20 18 15 12 10 8 8 7 6 7 8 9 9
14 15 15 12 8 6 8 11 14 20 23 25 26 24 24 25 22 19 16 14 13 16 15 13 21 42 48 42 40 40 38 41 44 46 49 51 52 53 53 52 52 52 53 53 53 53 53 53 54 53 52 52 51 51 49 42 37 37 38 38 39 37 32 27 22 20 18 17 17 18 19 20 19 16 14 11 9 8 8 7 7 7 8 8 9 9
16 18 17 15 15 15 18 20 22 25 27 27 26 24 25 25 24 22 18 18 18 18 21 26 35 45 48 42 40 41 41 44 47 48 50 52 52 53 53 52 52 52 52 53 53 53 53 53 53 52 52 51 51 50 48 43 37 36 37 38 38 35 30 24 20 18 17 17 17 18 18 17 15 13 11 9 9 8 7 7 7 7 8 8 8 9
18 20 18 18 21 23 24 25 25 25 27 27 26 26 26 25 25 26 24 24 23 17 24 37 38 41 46 44 39 42 46 47 49 50 50 52 52 52 52 52 52 51 51 52 52 52 52 52 52 52 51 51 51 49 48 43 37 35 36 37 37 34 28 22 18 16 16 17 18 17 16 14 13 11 9 8 8 7 6 6 6 6 6 7 7 8
19 21 21 20 21 23 25 26 24 23 25 28 29 30 29 25 25 28 27 28 27 25 30 40 40 42 45 41 39 44 46 47 50 50 50 52 51 51 52 52 51 51 51 51 51 52 52 51 51 51 50 51 50 49 48 43 36 34 35 35 35 32 26 20 17 16 16 17 17 15 14 12 10 9 8 7 6 5 5 5 5 5 6 6 7 8
19 20 22 23 23 25 25 23 22 24 28 32 33 30 25 22 22 26 29 28 29 33 37 39 41 44 40 36 40 47 45 46 50 49 50 51 50 50 51 51 52 51 51 51 51 51 51 51 51 50 50 50 49 48 48 44 37 33 33 34 34 30 24 19 17 16 16 16 16 14 12 10 8 7 6 5 4 4 4 4 4 4 5 7 8 9
20 21 23 25 27 27 24 22 23 25 30 36 32 21 15 17 19 24 28 28 28 34 37 36 41 44 38 36 42 47 46 48 49 48 49 49 48 49 51 52 53 52 51 52 51 51 51 50 50 50 49 50 49 48 47 44 38 32 32 33 32 29 23 18 16 16 15 15 14 13 10 8 7 6 5 4 3 3 3 3 3 4 5 7 8 9
22 23 25 25 27 28 26 25 25 28 35 34 23 14 14 18 20 23 25 26 28 32 34 35 40 41 40 42 46 47 47 48 48 48 48 46 47 49 51 52 53 52 52 52 51 51 51 50 49 49 49 49 49 47 46 45 39 32 30 31 30 28 23 18 16 16 15 14 13 12 9 7 6 5 4 3 3 3 3 3 3 4 5 8 9 10
23 24 25 22 23 28 28 26 29 33 28 20 16 21 25 22 20 21 24 28 30 30 33 36 38 38 41 45 48 48 48 48 49 48 46 46 47 49 51 52 52 52 52 52 51 51 50 49 49 48 48 48 48 46 45 44 40 33 30 29 29 27 22 18 16 16 15 14 12 11 9 6 5 4 3 3 2 2 2 2 3 4 6 8 10 12
23 24 25 21 21 27 30 30 30 22 11 13 24 28 22 17 17 20 26 32 33 33 35 36 35 38 43 47 48 49 49 49 48 47 45 45 46 48 50 51 51 52 52 52 52 51 49 49 49 48 48 47 46 46 44 43 41 35 29 28 28 26 22 18 16 16 15 13 12 11 9 6 5 4 3 3 2 2 2 2 3 4 6 8 11 13
23 24 24 22 22 28 32 27 16 7 12 25 29 21 15 17 21 25 31 34 34 35 35 33 35 41 46 47 48 49 50 49 47 46 44 44 45 46 49 50 51 52 52 52 52 51 49 49 49 48 47 46 46 45 43 42 41 36 30 27 26 25 22 18 16 15 15 13 11 10 8 7 6 4 3 3 2 2 2 2 3 4 5 8 11 13
22 22 22 22 22 24 22 12 5 16 31 31 21 17 21 24 26 29 36 39 37 32 29 31 39 46 46 47 48 49 50 50 48 45 43 43 44 45 47 49 50 51 51 51 51 51 50 49 49 47 46 45 45 44 42 42 40 37 31 26 25 25 22 18 16 15 14 13 11 10 8 7 6 5 3 3 3 3 3 3 3 4 5 7 10 12
20 21 21 19 16 16 17 16 21 30 32 24 18 22 26 27 29 31 38 43 36 26 28 38 45 46 45 47 48 48 50 52 50 46 45 45 44 45 47 49 50 50 51 50 51 51 50 49 49 46 45 44 44 43 42 41 40 38 33 27 24 24 23 19 16 14 14 13 11 10 9 7 7 6 5 4 4 4 4 4 4 4 6 8 9 11
18 19 19 16 15 16 17 18 19 17 15 18 23 26 28 30 31 32 38 41 33 28 38 46 45 45 47 47 48 49 51 54 54 50 48 48 47 47 48 49 49 50 50 50 50 50 50 49 48 46 44 43 43 42 41 40 40 38 34 29 25 23 22 20 16 15 14 13 12 11 10 8 8 8 7 6 6 6 6 5 5 5 6 7 9 10
18 19 18 18 20 21 18 14 9 9 15 25 28 28 30 33 35 34 35 36 36 40 46 47 45 47 48 47 48 50 50 53 56 54 51 50 49 48 48 49 49 49 50 49 49 49 49 48 48 46 44 42 42 41 40 40 39 38 35 31 25 22 22 20 17 15 14 13 12 12 11 10 10 10 9 9 8 8 7 7 7 7 6 6 8 9
19 19 19 21 24 25 23 19 17 19 25 29 27 29 34 35 36 30 23 30 44 49 46 46 48 48 47 48 50 50 49 52 54 53 52 52 51 49 49 49 49 49 49 49 48 48 48 47 47 46 44 42 41 41 40 39 39 38 36 32 27 23 22 20 18 16 15 14 13 12 12 12 11 11 11 11 10 10 9 9 9 8 7 6 7 8
21 20 21 23 24 24 23 24 26 30 29 25 26 34 38 36 33 25 23 36 49 48 45 47 48 48 48 49 49 50 51 51 51 52 53 52 52 51 51 50 50 50 50 49 48 48 48 47 47 46 45 42 41 41 40 39 38 37 36 34 29 25 22 21 19 17 15 15 14 13 13 13 13 13 13 13 13 12 11 11 10 10 9 8 7 7
22 19 19 21 21 20 21 23 26 28 25 25 31 38 38 34 32 32 36 43 46 46 48 48 47 48 49 49 49 52 52 51 52 52 53 53 53 53 52 51 51 50 50 50 49 48 48 47 46 46 45 43 41 40 40 39 37 37 36 34 31 27 23 21 20 18 17 16 15 15 14 14 15 15 15 15 15 14 13 13 12 12 11 10 9 9
22 18 18 20 18 16 16 15 15 19 25 31 36 38 37 37 36 38 42 45 46 49 50 48 49 50 49 50 53 53 53 53 53 52 52 53 54 53 53 53 51 51 51 50 49 48 48 47 47 46 46 44 42 41 40 39 37 36 36 35 33 29 25 22 21 20 18 17 16 16 16 15 16 17 17 17 17 16 16 15 14 14 14 13 12 11
22 19 19 22 20 17 17 17 16 22 31 36 36 35 37 38 39 41 44 48 51 52 50 50 52 50 49 52 54 53 54 55 53 52 53 53 53 53 54 53 52 52 52 51 50 49 48 47 47 46 46 45 43 41 40 39 37 35 35 34 33 31 28 24 22 21 20 18 18 17 17 17 17 18 18 19 18 18 18 17 16 16 16 15 14 13
22 23 24 26 26 25 28 29 27 29 33 36 37 37 37 38 40 43 46 50 53 53 52 53 54 51 50 52 53 54 55 55 55 54 53 53 53 53 53 53 52 52 52 52 52 50 49 48 47 46 46 45 44 42 40 39 37 36 35 34 33 31 29 26 23 22 21 20 19 18 18 18 18 19 19 20 20 20 20 19 18 18 18 17 17 16
26 27 29 30 30 32 33 31 30 31 32 34 35 36 39 42 45 46 48 51 54 54 54 54 55 55 54 54 56 58 58 58 59 57 54 54 54 53 52 53 52 51 52 52 52 51 50 49 47 46 45 45 44 43 41 39 37 36 35 34 33 32 30 28 25 23 22 21 21 20 19 19 19 19 20 21 21 21 21 21 20 20 20 19 19 18
29 28 28 29 30 32 33 29 28 32 33 32 34 38 42 46 48 48 51 53 54 55 55 56 56 56 56 56 58 59 59 60 60 59 57 57 55 53 52 52 51 51 51 51 51 52 51 50 49 47 45 45 44 44 42 40 38 37 35 34 33 32 30 29 27 25 23 22 22 21 21 21 21 21 21 21 22 23 23 23 22 22 21 21 20 20
27 25 25 26 27 29 30 30 31 33 31 31 37 43 46 48 49 49 49 50 51 52 52 52 52 52 52 52 53 55 56 56 56 58 59 58 57 55 54 52 51 51 50 50 50 50 50 51 50 48 46 45 44 44 43 42 39 37 36 35 33 32 30 29 27 26 24 23 23 22 22 22 23 23 22 22 22 23 24 24 24 23 23 22 22 21
22 22 23 25 27 28 29 32 37 39 38 38 42 46 47 48 49 49 48 48 49 49 50 50 50 49 49 50 51 52 53 52 52 54 55 56 56 55 54 54 53 51 50 49 49 48 49 50 51 50 48 46 44 43 43 43 41 38 36 35 33 32 31 29 28 27 25 24 23 23 23 23 24 24 24 24 24 24 24 24 24 24 24 24 23 22
21 22 25 28 31 31 32 36 40 44 47 48 48 48 47 47 48 50 50 49 49 49 50 51 51 50 50 51 51 52 53 52 52 52 52 53 53 52 52 53 53 53 52 51 50 48 47 48 50 50 48 46 45 44 43 43 42 39 37 35 34 32 31 30 29 28 26 25 23 23 23 23 24 25 26 26 26 25 25 25 24 24 24 24 23 22
22 24 27 30 32 34 36 40 42 44 49 50 49 48 48 49 51 52 52 52 51 51 52 53 53 53 52 51 51 52 53 53 52 52 53 53 52 51 52 52 52 53 53 52 51 49 47 47 49 48 48 47 46 44 43 43 42 40 38 36 34 32 31 30 29 28 27 26 24 23 23 23 24 25 25 27 27 27 27 26 25 24 24 25 24 23
Wind_Direction
27 1 4 25 20 20 18 16 20 19 13 6 359 359 356 348 347 346 325 325 325 324 336 321 297 304 311 313 312 312 315 316 320 324 325 326 327 326 326 324 325 326 329 330 329 329 329 328 328 329 330 330 330 328 326 327 328 327 326 323 322 320 318 314 311 308 303 299 298 295 291 289 290 289 284 276 278 286 290 292 294 293 291 291 293 295
10 0 33 37 25 23 20 17 17 13 9 5 1 357 349 339 342 345 323 331 328 316 325 319 298 301 305 307 309 311 314 317 323 326 326 326 326 326 325 324 327 330 332 331 330 329 328 327 328 330 329 328 330 331 329 328 328 328 327 324 324 323 321 316 310 307 303 301 302 298 294 293 294 297 291 276 267 271 280 283 281 277 278 282 287 292
6 26 40 31 16 18 19 18 16 11 6 5 4 356 343 335 337 343 334 334 327 311 317 313 294 297 302 305 311 313 316 320 325 327 326 325 324 324 324 326 329 332 333 332 331 330 328 329 330 330 328 329 332 332 330 329 329 329 328 327 326 325 321 316 309 306 303 301 300 296 293 293 294 295 292 278 262 258 265 271 269 264 265 273 280 285
23 37 37 23 15 13 10 11 8 6 6 5 4 355 344 337 332 332 327 327 328 316 312 303 292 295 301 310 320 323 324 326 327 327 325 324 323 322 324 329 331 332 333 333 332 330 329 330 330 329 328 330 333 333 331 331 330 329 329 327 326 324 321 316 310 306 303 300 298 295 291 290 290 290 286 279 265 255 253 257 261 259 258 265 272 277
30 35 26 19 13 8 5 357 349 357 3 1 360 353 342 336 329 321 317 321 332 325 312 309 303 296 304 323 330 331 331 329 327 325 324 323 322 322 326 330 332 333 334 333 332 331 330 331 331 329 328 331 334 333 332 332 331 330 329 327 325 324 321 315 310 306 303 302 299 297 293 289 286 283 276 270 265 258 253 254 256 254 254 260 267 271
26 27 19 15 8 5 0 347 343 349 353 355 356 350 340 332 326 320 316 318 327 332 329 327 320 302 311 324 331 333 332 329 325 323 322 320 320 324 329 331 332 334 333 333 333 332 331 331 331 329 330 333 334 333 333 332 331 329 328 326 325 323 320 314 310 308 306 306 303 300 298 293 289 282 270 258 255 253 251 252 252 251 252 256 261 266
12 15 16 12 4 2 355 346 347 346 344 351 351 347 343 333 323 321 317 315 319 328 331 322 299 288 305 320 331 330 330 329 327 325 322 321 325 329 332 332 332 333 332 333 333 332 332 332 332 332 333 334 334 333 333 331 330 328 327 325 324 322 317 313 311 310 309 307 304 300 298 295 291 286 276 260 250 247 245 246 249 251 253 254 258 263
348 357 12 10 1 355 352 347 347 344 340 343 342 343 344 335 324 319 317 317 313 320 326 312 259 275 295 316 328 327 329 331 330 329 327 327 330 332 332 331 332 332 332 334 334 333 333 333 334 334 333 333 333 333 332 330 329 328 327 325 323 321 315 312 312 311 311 309 305 301 298 295 290 285 281 270 256 250 247 244 244 248 249 251 257 261
348 347 3 6 359 352 352 348 343 341 339 338 338 342 344 340 327 318 323 328 314 311 323 314 278 274 282 308 323 325 328 333 334 333 330 330 332 332 331 331 332 332 333 334 334 333 333 334 335 333 332 333 333 332 331 330 329 328 327 324 323 321 314 311 312 312 312 311 308 303 299 297 291 283 279 275 266 257 252 248 245 245 246 248 252 256
356 352 354 357 356 353 353 347 338 340 341 338 337 340 345 342 329 324 335 332 312 297 303 268 296 318 295 306 322 328 327 332 335 333 332 332 331 330 330 332 333 333 334 334 333 333 334 335 334 331 331 332 332 331 330 330 329 329 328 326 325 323 317 313 313 312 311 310 307 303 300 297 293 285 278 275 270 264 259 256 252 250 249 250 252 253
2 352 341 349 353 353 352 347 340 340 341 341 340 342 347 345 334 322 329 330 314 289 281 230 297 335 311 308 323 329 329 332 333 332 331 330 329 329 332 334 335 335 335 334 334 334 335 334 331 330 331 332 331 331 331 330 330 331 331 328 325 324 320 315 313 312 310 308 305 301 299 298 295 290 284 278 274 268 264 263 261 258 256 255 256 256
4 352 331 342 347 348 350 347 341 339 342 343 343 346 350 349 343 314 301 342 321 290 304 278 306 313 284 299 322 328 329 331 330 329 328 327 328 331 335 336 336 336 335 334 335 335 334 332 329 329 331 333 332 332 332 332 332 333 334 331 327 326 323 318 314 313 312 309 305 300 296 296 295 293 289 284 279 273 269 267 266 264 262 261 260 261
356 352 334 334 338 343 347 346 342 338 342 344 344 353 360 355 351 349 270 330 253 277 303 300 304 301 279 302 324 328 328 329 328 327 325 326 331 335 337 338 337 336 335 335 335 334 332 329 328 331 333 334 334 334 334 333 333 334 335 333 330 327 324 318 314 313 312 309 305 301 296 294 293 293 291 289 285 280 275 272 269 268 267 266 265 265
352 354 343 334 336 341 343 343 343 339 341 347 353 3 13 21 5 342 298 320 261 293 311 309 302 293 296 318 329 329 329 330 328 327 327 330 335 338 338 338 337 336 335 335 334 332 330 328 330 333 335 335 335 335 335 335 334 335 336 335 331 328 325 321 318 317 315 311 307 303 299 296 294 292 291 290 288 285 281 279 277 275 274 272 272 271
347 345 339 335 335 340 340 340 342 341 341 349 360 8 10 22 52 296 291 309 281 302 314 316 302 293 309 326 333 332 334 335 331 329 330 334 337 338 338 337 336 335 335 334 333 331 330 329 332 335 336 337 337 336 336 336 334 336 336 334 331 329 327 325 323 323 322 316 310 306 302 298 297 294 292 290 290 290 289 287 284 280 278 277 276 275
338 332 329 328 332 337 339 339 339 341 343 347 356 3 357 351 277 264 281 285 283 298 312 311 305 310 316 328 336 335 337 338 334 331 333 336 338 337 337 336 334 335 335 334 333 331 330 331 334 337 338 338 338 337 337 336 335 336 336 334 331 329 327 326 324 323 323 320 313 308 304 300 298 296 293 292 292 293 292 290 287 285 283 282 281 280
335 332 325 321 333 339 340 339 335 335 341 343 349 358 354 343 307 299 290 284 282 272 298 300 307 318 325 337 343 339 339 339 335 333 334 336 337 335 334 334 334 335 335 334 333 330 330 334 336 338 339 339 338 337 337 337 336 336 336 334 330 328 326 324 322 322 321 320 315 309 305 303 300 298 295 293 293 293 294 294 293 292 290 289 288 287
333 331 324 320 333 339 339 335 330 327 333 336 339 350 353 346 328 325 310 304 319 245 280 289 302 315 322 332 341 340 339 340 336 333 334 335 334 333 332 333 334 335 335 334 333 331 333 336 339 339 340 340 339 338 338 338 337 337 336 333 330 328 327 325 323 322 319 319 318 312 306 303 302 300 298 296 296 297 298 297 295 294 293 292 290 288
334 331 325 324 330 338 337 330 327 324 324 327 327 334 345 344 315 321 319 312 328 294 287 295 305 315 317 320 334 339 338 338 336 333 334 332 331 331 331 333 334 335 336 334 333 334 336 338 340 340 341 341 339 338 339 339 337 337 336 333 331 330 329 327 325 323 319 317 318 315 309 307 304 302 301 302 304 304 301 299 297 297 296 294 291 289
333 325 315 322 327 333 334 327 321 318 318 319 317 318 330 334 301 299 293 266 275 268 297 313 312 319 327 328 332 339 338 337 336 333 333 331 329 330 332 333 335 336 336 335 335 337 338 340 341 341 341 341 340 340 340 339 337 337 337 335 334 333 332 329 326 324 320 317 316 315 313 311 308 306 306 307 309 308 305 304 304 304 303 302 300 299
327 318 305 316 326 327 327 324 317 315 313 310 311 309 314 323 312 301 287 265 254 225 258 352 297 310 331 341 335 338 339 337 335 333 331 329 329 331 332 333 336 336 336 336 337 338 339 340 341 341 342 342 341 341 341 339 338 338 339 338 337 336 335 332 329 326 323 319 318 317 316 315 312 310 310 311 311 311 310 310 311 311 312 313 315 316
323 317 305 310 325 324 321 323 315 311 311 308 310 307 306 312 310 301 285 264 244 231 249 180 271 307 334 346 336 338 339 335 334 331 329 328 328 331 332 334 336 336 336 337 338 339 340 341 341 341 342 343 342 342 341 339 339 340 341 340 339 338 337 335 332 328 325 323 322 320 319 316 314 313 314 314 313 313 315 316 317 318 320 324 329 332
319 315 305 309 322 324 324 326 318 311 310 306 307 306 305 307 301 288 265 270 262 254 263 231 247 307 335 341 334 338 338 334 333 328 326 327 328 331 333 334 336 336 336 337 338 340 340 341 341 341 342 343 342 342 341 339 340 341 342 342 341 340 338 337 336 331 328 327 326 324 321 318 317 317 318 318 317 318 320 322 323 327 332 338 344 346
318 314 308 311 318 322 322 324 321 315 310 305 304 305 303 301 299 291 276 277 278 266 263 209 221 304 332 337 334 338 336 331 329 325 325 328 329 332 334 334 335 335 336 337 338 340 340 340 341 342 343 344 343 343 342 340 341 343 343 342 342 342 341 340 339 336 333 331 328 326 324 323 323 323 324 324 326 328 329 332 339 348 353 358 1 1
311 308 309 316 323 328 328 327 324 317 312 307 305 305 303 300 296 287 276 272 271 269 263 191 235 302 327 334 332 336 333 327 327 325 327 330 331 334 334 333 334 335 335 337 338 340 341 341 342 342 343 344 343 343 343 341 342 344 344 343 343 343 343 342 342 340 336 333 331 329 327 327 329 330 333 337 340 345 352 1 11 17 16 15 16 15
298 298 305 309 305 303 308 312 315 315 311 307 307 307 306 303 294 285 275 259 261 272 257 232 275 308 326 335 333 334 332 328 329 329 329 332 333 334 334 333 334 334 335 337 338 340 341 341 341 342 343 344 343 344 344 343 343 344 344 344 344 345 346 346 345 343 339 335 334 333 332 334 337 342 348 354 2 14 25 31 33 33 31 29 27 26
292 294 303 300 291 292 300 310 317 316 309 305 308 307 304 302 296 284 265 256 272 278 268 278 297 309 323 337 337 335 334 332 332 332 332 333 335 335 334 333 333 333 334 336 338 340 342 342 341 342 343 343 344 344 345 344 344 344 345 344 346 347 347 348 348 345 341 339 339 338 338 342 349 357 5 14 26 36 43 43 42 40 37 34 31 28
292 295 299 298 300 304 308 316 319 313 306 305 308 306 304 303 294 279 269 276 287 276 279 303 310 304 315 334 337 333 335 333 333 334 334 334 336 335 334 333 332 333 334 336 338 341 342 341 342 343 343 343 344 345 346 346 344 344 345 345 347 348 348 348 348 345 343 342 343 343 345 351 359 8 20 31 38 44 48 50 47 42 34 28 25 21
294 296 298 298 301 305 309 317 317 309 306 306 307 309 308 304 292 284 286 293 288 271 284 309 311 300 313 333 334 331 334 332 332 335 335 335 336 335 334 333 332 333 334 336 339 340 341 342 342 343 342 343 344 345 346 347 345 344 345 346 348 348 347 347 347 346 345 345 345 347 350 357 6 17 29 35 38 43 51 55 48 35 22 15 11 9
294 296 299 298 299 305 311 315 313 310 310 310 312 314 310 301 293 291 297 299 288 282 295 310 307 306 322 336 330 330 333 331 333 335 335 336 336 333 333 333 334 335 335 337 339 340 341 343 343 343 342 342 345 345 346 347 346 344 345 346 347 348 346 345 346 346 345 345 346 349 353 359 8 20 31 31 29 37 44 46 39 21 8 4 3 0
293 293 297 298 299 305 312 314 313 314 312 310 313 315 304 296 295 295 300 301 292 293 306 310 302 308 329 337 329 330 333 332 333 335 335 337 335 333 334 335 335 336 336 337 338 340 342 343 343 343 342 343 345 345 346 347 346 344 344 345 346 347 346 343 344 344 343 344 346 349 352 356 4 15 23 21 17 24 29 29 21 7 359 358 355 350
293 291 295 299 298 301 310 314 314 315 310 306 309 322 318 308 302 298 300 302 300 303 310 305 298 310 330 333 328 330 332 332 333 334 336 337 335 334 336 336 337 337 337 337 339 340 342 343 343 343 342 343 344 345 346 347 347 344 342 343 345 346 345 341 341 342 341 341 344 347 348 349 354 2 7 4 0 6 13 14 7 1 355 351 345 339
293 291 294 298 295 298 307 312 314 317 312 305 317 329 325 314 302 296 302 310 313 310 307 303 305 318 329 329 328 330 331 331 332 335 337 337 336 336 337 337 338 337 337 338 339 341 342 342 343 343 342 342 343 344 345 346 347 344 341 342 344 345 343 339 338 340 339 338 340 342 341 338 340 346 348 343 338 344 353 353 354 356 351 346 339 334
290 290 292 292 288 294 304 312 316 316 304 308 321 324 321 312 303 303 312 320 320 316 312 311 314 323 327 328 329 329 330 331 331 334 337 336 336 337 337 337 338 338 338 339 339 340 341 341 343 343 342 342 342 344 345 346 347 344 340 340 342 343 342 337 335 337 335 333 334 336 333 327 325 327 327 322 315 316 319 322 338 348 348 342 336 335
290 289 287 286 285 293 304 317 325 307 298 314 322 326 328 326 321 317 318 323 325 322 318 315 318 325 327 328 329 328 328 329 330 334 337 335 335 337 336 337 338 338 339 339 339 340 340 341 343 343 342 341 341 343 344 345 346 345 339 337 339 341 340 335 330 332 331 327 325 327 325 317 309 307 305 297 282 279 283 292 319 337 343 339 337 338
291 287 284 285 287 293 303 311 292 297 311 321 331 339 336 332 329 322 318 324 330 326 319 317 323 327 328 327 328 328 327 327 329 334 336 333 333 335 336 336 337 337 339 339 339 340 340 341 343 342 341 340 340 342 344 344 345 345 341 336 336 338 339 333 327 327 326 320 316 317 316 307 295 287 275 263 256 261 267 279 304 323 333 338 341 341
293 286 284 285 286 289 289 285 290 302 314 327 339 340 336 330 330 323 316 323 333 332 324 326 328 328 328 328 329 328 327 326 328 333 335 333 333 334 334 336 336 336 337 338 338 340 340 341 342 342 341 339 339 341 343 343 344 345 342 337 333 335 336 332 324 321 320 314 307 305 304 296 283 270 255 248 248 253 260 271 286 304 320 331 341 342
298 290 284 279 279 281 281 291 304 306 310 324 332 336 334 330 330 323 314 320 334 337 331 331 330 329 330 330 329 329 328 327 327 332 334 332 331 332 332 333 334 333 335 337 338 339 340 340 340 341 340 339 338 340 342 343 343 345 344 339 332 330 331 330 323 315 313 308 300 295 292 285 274 260 248 245 247 250 257 263 269 284 307 323 335 341
300 294 286 275 275 275 272 279 285 266 294 320 331 334 333 329 328 323 314 318 331 335 332 332 331 331 332 331 330 330 329 327 327 331 332 329 329 329 329 330 331 331 332 334 336 337 338 338 339 340 340 339 338 338 341 342 342 343 344 341 333 326 326 327 322 312 307 301 294 288 283 278 268 256 249 246 245 249 255 256 260 271 288 307 323 335
300 296 290 281 280 279 272 268 265 274 301 323 332 331 330 328 326 324 316 321 329 332 333 333 332 331 331 331 329 328 327 326 326 327 328 327 326 327 326 326 328 328 329 331 333 334 335 337 338 339 340 340 338 338 340 342 341 341 342 342 336 326 321 322 320 313 303 296 291 284 278 274 265 256 251 248 246 248 252 253 255 261 272 290 308 324
299 296 291 286 286 284 273 265 274 290 310 330 334 330 329 326 324 322 317 322 328 330 331 331 329 328 330 329 327 325 324 324 324 325 326 325 325 326 324 324 325 326 326 328 330 331 333 335 336 338 339 340 339 338 338 340 341 340 341 341 338 330 320 316 316 313 303 294 288 281 276 271 264 257 252 250 250 249 249 252 255 257 263 276 291 306
299 296 291 288 289 287 277 269 279 297 319 336 334 330 328 325 323 323 323 325 327 327 328 329 327 327 328 326 324 323 322 323 324 324 324 324 324 324 323 322 323 323 324 325 327 329 330 332 335 336 338 339 339 338 337 338 340 339 339 339 339 334 324 314 311 310 304 293 285 279 275 270 265 260 255 252 253 252 250 251 253 255 259 266 277 291
298 293 289 291 295 292 279 269 279 304 323 333 333 330 328 325 325 327 327 326 326 327 327 327 326 327 326 324 322 322 321 322 323 323 322 322 322 322 321 321 321 321 321 323 324 326 327 329 332 334 336 338 339 338 336 336 338 338 337 337 338 336 329 318 308 305 302 294 284 278 273 269 266 262 257 255 255 255 254 253 251 254 257 261 269 279
300 296 293 296 299 290 276 275 295 315 323 330 332 329 324 323 326 327 325 322 324 326 324 322 322 324 323 322 322 321 321 321 322 321 320 320 319 319 320 320 320 320 320 320 322 323 325 327 329 331 333 335 337 338 336 335 336 337 336 336 336 335 332 324 311 302 298 294 286 277 272 270 267 263 259 257 255 256 257 256 254 254 255 257 261 267
304 306 302 299 299 296 290 296 314 325 327 327 326 322 321 324 326 325 321 319 320 321 320 318 318 319 319 318 318 318 319 320 320 319 319 318 317 317 317 318 319 320 319 320 320 321 322 324 326 328 330 333 335 336 336 335 334 335 335 334 334 333 332 328 318 305 296 292 286 279 272 269 267 265 261 258 256 256 258 259 258 257 256 257 258 260
314 313 307 306 310 309 304 310 323 327 324 322 321 322 326 327 326 324 321 319 318 318 318 317 316 316 315 315 315 315 315 316 317 317 317 316 315 315 315 316 317 317 318 319 319 319 320 321 322 324 327 329 331 333 334 334 334 333 333 333 332 331 330 329 324 313 300 291 285 279 274 269 266 266 264 260 257 257 257 259 260 259 259 258 257 257
322 319 315 318 321 317 312 318 328 326 323 325 326 327 327 326 323 322 320 319 318 318 318 317 316 316 315 315 314 314 313 314 314 315 316 315 314 313 313 314 315 315 316 317 318 318 319 319 319 321 323 325 328 330 332 333 333 332 331 331 330 329 328 327 325 319 307 295 286 280 275 269 266 265 264 262 260 258 257 258 259 260 260 259 258 257
331 330 331 331 329 323 321 329 333 326 323 327 330 329 328 325 323 322 321 320 321 321 321 321 321 321 321 321 319 317 316 315 314 313 313 312 311 312 312 311 312 312 313 314 316 316 317 318 318 319 319 321 324 327 329 330 332 332 330 329 328 327 326 325 324 321 315 303 291 282 277 271 267 264 262 262 261 259 258 257 257 257 259 259 258 257
343 344 346 341 336 332 333 337 335 327 324 329 332 331 329 327 325 323 323 324 325 325 324 324 324 324 323 322 322 320 319 319 318 315 313 311 311 311 310 309 309 309 310 312 313 314 316 316 316 317 317 318 320 323 325 327 329 330 329 327 326 326 324 323 323 321 318 310 299 288 281 274 269 265 262 261 260 260 259 258 256 255 256 257 256 255
353 352 350 345 341 339 338 339 337 331 329 333 336 334 334 333 329 328 330 331 331 329 327 325 325 325 323 321 320 319 317 317 318 317 315 314 314 312 309 308 307 306 307 309 309 311 313 313 313 315 316 316 317 319 321 323 325 327 327 326 324 324 323 322 321 320 318 314 306 296 286 279 273 267 263 261 260 259 258 258 257 256 255 255 254 251
355 351 348 345 341 339 339 339 337 334 333 335 337 337 337 336 333 332 333 333 332 331 329 328 328 327 326 325 323 320 318 318 318 317 315 315 316 315 312 310 307 306 306 306 307 308 309 309 310 312 313 314 315 316 317 318 320 323 325 324 323 322 321 320 319 318 317 315 311 303 294 285 278 273 267 262 259 258 257 257 256 255 254 256 255 252
Height
3158 3158 3157 3156 3155 3154 3153 3153 3151 3150 3150 3148 3147 3145 3143 3141 3139 3138 3137 3136 3133 3131 3130 3129 3127 3125 3124 3123 3122 3120 3118 3117 3115 3113 3110 3108 3105 3103 3100 3097 3094 3091 3085 3080 3076 3072 3068 3064 3060 3056 3051 3047 3042 3035 3027 3021 3016 3011 3007 3003 3000 2996 2992 2989 2985 2981 2977 2973 2971 2970 2968 2967 2966 2967 2968 2968 2968 2967 2967 2966 2965 2963 2961 2960 2960 2960
3158 3158 3157 3156 3155 3154 3153 3152 3150 3149 3148 3147 3145 3143 3142 3140 3137 3137 3135 3134 3132 3129 3128 3127 3125 3123 3122 3121 3120 3118 3116 3114 3112 3110 3108 3105 3103 3101 3098 3096 3092 3087 3081 3077 3073 3068 3064 3060 3056 3052 3048 3043 3037 3030 3022 3017 3012 3007 3003 2998 2994 2990 2986 2983 2979 2976 2972 2969 2966 2965 2964 2962 2961 2962 2963 2963 2964 2964 2964 2964 2962 2961 2959 2957 2956 2956
3158 3157 3156 3156 3155 3154 3153 3151 3150 3149 3148 3146 3144 3142 3140 3138 3136 3135 3134 3132 3131 3128 3126 3125 3123 3120 3119 3118 3118 3116 3114 3112 3110 3108 3106 3103 3101 3099 3096 3092 3088 3082 3078 3074 3069 3065 3061 3056 3052 3049 3045 3039 3032 3025 3018 3013 3007 3002 2997 2992 2989 2985 2981 2977 2974 2971 2968 2965 2962 2960 2959 2958 2956 2957 2957 2957 2958 2959 2960 2961 2960 2958 2956 2955 2954 2952
3157 3157 3156 3156 3155 3154 3152 3151 3150 3148 3147 3145 3143 3141 3139 3137 3134 3133 3132 3131 3130 3127 3124 3123 3121 3118 3116 3116 3115 3114 3112 3110 3108 3106 3104 3102 3099 3096 3093 3089 3084 3079 3075 3070 3066 3062 3057 3052 3048 3045 3040 3033 3027 3021 3014 3008 3003 2997 2991 2987 2983 2979 2976 2972 2969 2967 2964 2961 2958 2956 2955 2954 2953 2952 2952 2952 2952 2954 2955 2956 2956 2955 2953 2952 2950 2949
3157 3157 3156 3155 3154 3153 3152 3151 3150 3148 3146 3144 3142 3140 3138 3136 3134 3131 3129 3128 3128 3126 3123 3121 3117 3113 3113 3112 3112 3111 3110 3108 3106 3104 3102 3099 3097 3093 3089 3085 3081 3076 3071 3066 3062 3057 3052 3048 3045 3041 3035 3028 3022 3016 3010 3004 2998 2992 2987 2982 2977 2974 2971 2968 2965 2962 2959 2956 2954 2952 2950 2950 2949 2948 2948 2947 2948 2949 2949 2950 2951 2950 2949 2948 2947 2945
3157 3156 3156 3155 3154 3152 3151 3150 3149 3147 3145 3144 3142 3140 3137 3135 3133 3131 3128 3126 3125 3124 3122 3120 3116 3110 3108 3109 3109 3108 3108 3106 3104 3102 3100 3097 3094 3090 3086 3081 3077 3072 3068 3063 3059 3054 3049 3046 3042 3037 3030 3023 3017 3011 3005 2999 2993 2988 2983 2978 2973 2969 2966 2964 2961 2958 2955 2952 2950 2947 2946 2944 2944 2943 2943 2943 2943 2943 2944 2945 2946 2946 2946 2945 2944 2943
3157 3156 3155 3154 3153 3152 3151 3149 3148 3146 3144 3143 3141 3139 3136 3133 3131 3130 3128 3125 3124 3122 3120 3119 3118 3110 3104 3105 3106 3105 3104 3103 3102 3099 3097 3094 3091 3087 3082 3078 3073 3069 3065 3061 3056 3052 3048 3044 3038 3031 3024 3019 3013 3007 3002 2996 2990 2984 2979 2973 2969 2965 2962 2960 2957 2954 2951 2948 2946 2944 2942 2940 2938 2937 2938 2938 2938 2938 2938 2940 2940 2941 2941 2941 2940 2939
3157 3156 3154 3153 3152 3151 3149 3148 3146 3145 3144 3142 3141 3139 3136 3133 3131 3129 3127 3125 3122 3121 3119 3118 3118 3112 3104 3102 3103 3102 3101 3100 3098 3096 3093 3090 3087 3083 3079 3075 3071 3067 3063 3059 3054 3049 3045 3040 3033 3026 3020 3015 3009 3004 2999 2993 2986 2980 2975 2969 2965 2961 2958 2956 2954 2951 2948 2945 2942 2940 2938 2937 2935 2933 2932 2933 2933 2933 2933 2934 2935 2936 2936 2937 2936 2935
3156 3154 3153 3152 3151 3150 3148 3146 3145 3144 3142 3141 3139 3137 3134 3131 3130 3128 3126 3124 3121 3119 3118 3116 3116 3113 3105 3101 3102 3100 3098 3097 3095 3093 3090 3087 3084 3080 3077 3073 3070 3066 3061 3055 3051 3046 3041 3035 3028 3022 3017 3012 3006 3001 2996 2989 2983 2977 2970 2965 2961 2958 2955 2952 2950 2948 2945 2941 2939 2936 2934 2932 2931 2930 2928 2928 2928 2928 2928 2929 2929 2930 2931 2932 2932 2931
3154 3153 3152 3151 3150 3148 3147 3145 3144 3142 3141 3139 3138 3136 3133 3130 3128 3126 3125 3123 3121 3119 3117 3115 3115 3113 3104 3099 3101 3099 3096 3095 3092 3090 3088 3085 3082 3078 3075 3072 3067 3063 3057 3052 3047 3042 3037 3031 3025 3020 3014 3009 3004 2998 2992 2986 2980 2973 2966 2960 2956 2954 2951 2948 2946 2944 2941 2938 2935 2933 2930 2928 2927 2926 2925 2923 2923 2923 2924 2924 2924 2924 2925 2925 2926 2926
3153 3152 3151 3150 3149 3147 3146 3144 3142 3140 3139 3137 3135 3133 3131 3129 3126 3125 3124 3122 3121 3118 3115 3114 3114 3114 3106 3098 3098 3097 3094 3093 3091 3089 3086 3083 3081 3078 3074 3069 3064 3059 3053 3048 3043 3038 3033 3028 3022 3017 3011 3006 3000 2994 2988 2981 2975 2969 2962 2957 2953 2950 2948 2945 2942 2940 2938 2935 2932 2929 2926 2924 2923 2922 2921 2920 2919 2919 2919 2918 2918 2919 2919 2919 2919 2919
3152 3151 3150 3149 3148 3147 3145 3143 3141 3139 3138 3135 3133 3130 3128 3126 3124 3124 3123 3122 3121 3116 3114 3113 3112 3113 3109 3099 3097 3096 3093 3091 3089 3087 3085 3082 3079 3075 3070 3065 3060 3055 3049 3045 3040 3034 3030 3025 3020 3015 3009 3002 2995 2989 2982 2976 2970 2964 2959 2954 2950 2947 2944 2941 2938 2935 2933 2930 2928 2925 2923 2920 2919 2917 2916 2915 2915 2915 2914 2914 2913 2913 2913 2913 2913 2912
3151 3150 3149 3148 3147 3146 3144 3142 3141 3139 3137 3135 3133 3130 3127 3125 3124 3123 3123 3123 3121 3116 3113 3113 3111 3110 3105 3098 3097 3095 3092 3090 3088 3085 3083 3080 3076 3070 3065 3060 3055 3051 3046 3041 3036 3031 3027 3023 3017 3012 3005 2997 2990 2983 2977 2971 2965 2960 2955 2951 2947 2944 2941 2938 2935 2932 2929 2926 2924 2922 2919 2917 2915 2913 2912 2911 2910 2910 2909 2909 2908 2907 2906 2906 2906 2906
3150 3149 3148 3147 3146 3144 3142 3141 3140 3138 3136 3135 3132 3129 3128 3128 3127 3125 3123 3122 3120 3114 3110 3111 3111 3107 3100 3096 3095 3093 3091 3089 3085 3082 3080 3076 3071 3065 3060 3056 3051 3047 3043 3038 3033 3029 3025 3020 3014 3008 3001 2993 2986 2979 2973 2966 2960 2955 2951 2948 2944 2941 2938 2935 2931 2928 2925 2922 2919 2918 2916 2913 2911 2910 2909 2907 2906 2905 2905 2904 2903 2902 2901 2901 2901 2900
3149 3147 3147 3146 3145 3143 3142 3140 3139 3137 3135 3134 3133 3131 3130 3131 3131 3129 3126 3123 3121 3115 3107 3106 3107 3103 3097 3093 3092 3090 3089 3085 3082 3079 3075 3071 3066 3061 3056 3052 3048 3044 3040 3035 3031 3027 3022 3017 3011 3004 2996 2989 2982 2976 2969 2963 2957 2952 2948 2944 2941 2938 2934 2931 2927 2924 2921 2918 2916 2914 2912 2910 2908 2906 2905 2904 2902 2901 2901 2900 2899 2898 2897 2896 2895 2895
3148 3147 3146 3145 3144 3143 3141 3139 3137 3136 3135 3133 3132 3132 3131 3130 3130 3129 3127 3124 3123 3119 3109 3103 3101 3099 3095 3092 3089 3088 3085 3082 3078 3075 3071 3066 3062 3057 3053 3050 3046 3042 3037 3033 3029 3025 3019 3014 3007 3000 2992 2985 2978 2972 2966 2960 2954 2949 2945 2941 2938 2934 2931 2927 2923 2920 2917 2915 2912 2910 2908 2906 2904 2903 2902 2901 2899 2898 2897 2896 2895 2894 2893 2892 2891 2890
3147 3146 3145 3144 3143 3142 3140 3138 3136 3136 3135 3133 3132 3131 3130 3129 3128 3127 3125 3122 3123 3121 3112 3102 3098 3094 3091 3089 3086 3084 3081 3078 3075 3070 3066 3063 3059 3055 3052 3048 3044 3040 3035 3032 3027 3022 3017 3010 3003 2996 2989 2982 2975 2969 2963 2957 2951 2946 2942 2939 2935 2932 2928 2924 2921 2917 2914 2912 2909 2907 2905 2903 2901 2900 2899 2897 2896 2895 2894 2892 2891 2891 2890 2889 2888 2886
3147 3145 3143 3143 3142 3141 3139 3137 3136 3135 3134 3133 3132 3131 3129 3128 3128 3127 3124 3121 3121 3119 3110 3102 3098 3092 3088 3086 3082 3080 3078 3075 3072 3068 3064 3061 3057 3054 3050 3047 3043 3038 3034 3030 3025 3020 3013 3006 2999 2992 2985 2978 2972 2966 2960 2954 2949 2944 2940 2936 2933 2929 2925 2921 2918 2914 2911 2908 2906 2904 2902 2900 2898 2896 2895 2894 2894 2892 2891 2889 2888 2887 2886 2885 2884 2882
3146 3144 3142 3142 3140 3139 3138 3136 3135 3134 3133 3132 3131 3130 3129 3128 3128 3127 3126 3122 3121 3119 3109 3101 3097 3092 3087 3084 3080 3078 3076 3073 3069 3066 3062 3059 3055 3052 3048 3044 3040 3035 3032 3027 3022 3016 3009 3002 2996 2989 2982 2975 2969 2963 2956 2950 2946 2942 2938 2934 2930 2926 2922 2918 2914 2911 2908 2905 2902 2900 2899 2897 2895 2893 2892 2891 2890 2889 2888 2886 2884 2883 2882 2881 2880 2878
3145 3143 3141 3140 3139 3138 3136 3135 3134 3132 3131 3131 3130 3130 3129 3128 3127 3126 3126 3124 3122 3120 3112 3103 3096 3088 3085 3083 3079 3077 3074 3070 3067 3063 3060 3056 3052 3049 3045 3041 3037 3033 3028 3024 3017 3011 3004 2998 2992 2985 2979 2973 2966 2960 2953 2948 2943 2939 2935 2931 2927 2923 2918 2914 2910 2907 2905 2902 2899 2897 2895 2894 2892 2890 2889 2888 2887 2886 2884 2882 2880 2879 2878 2877 2876 2874
3144 3143 3141 3139 3138 3136 3135 3133 3132 3130 3130 3129 3128 3128 3127 3127 3126 3124 3123 3122 3121 3120 3117 3112 3101 3085 3081 3082 3078 3075 3072 3068 3065 3061 3057 3053 3049 3046 3043 3038 3034 3029 3024 3019 3013 3007 3001 2994 2988 2982 2976 2970 2964 2957 2951 2946 2941 2937 2932 2928 2923 2919 2915 2911 2907 2904 2901 2899 2897 2895 2893 2891 2890 2888 2886 2885 2883 2882 2880 2879 2877 2876 2875 2874 2873 2872
3142 3141 3139 3137 3136 3135 3133 3132 3130 3129 3129 3127 3126 3126 3124 3124 3124 3123 3121 3118 3118 3117 3114 3115 3106 3083 3076 3079 3076 3073 3070 3066 3062 3058 3054 3051 3047 3044 3040 3035 3030 3025 3020 3015 3009 3003 2997 2991 2986 2980 2974 2968 2961 2955 2948 2943 2939 2934 2929 2925 2920 2916 2912 2908 2905 2901 2898 2896 2894 2892 2891 2889 2887 2885 2883 2881 2880 2878 2877 2876 2875 2874 2872 2871 2871 2870
3141 3139 3137 3135 3135 3133 3131 3130 3129 3128 3127 3126 3125 3124 3122 3122 3121 3121 3120 3116 3116 3115 3110 3114 3107 3083 3073 3077 3074 3070 3069 3064 3060 3056 3052 3049 3045 3040 3036 3030 3026 3021 3016 3011 3006 3000 2994 2989 2983 2978 2971 2965 2959 2953 2947 2941 2936 2931 2926 2922 2918 2914 2909 2905 2902 2899 2896 2894 2892 2890 2888 2887 2885 2883 2881 2879 2877 2876 2875 2874 2873 2872 2871 2870 2869 2868
3140 3138 3135 3133 3132 3131 3130 3129 3128 3127 3126 3125 3124 3122 3121 3119 3118 3118 3117 3114 3114 3110 3107 3111 3103 3079 3072 3076 3072 3069 3067 3063 3059 3055 3050 3047 3041 3037 3032 3026 3022 3018 3013 3008 3002 2997 2992 2986 2981 2975 2968 2963 2956 2951 2945 2939 2934 2929 2924 2920 2916 2911 2907 2903 2900 2897 2894 2892 2890 2888 2886 2885 2883 2880 2878 2877 2875 2874 2873 2872 2871 2870 2870 2869 2868 2867
3139 3137 3135 3132 3130 3128 3127 3126 3126 3125 3124 3122 3121 3120 3118 3116 3116 3115 3113 3113 3111 3104 3103 3106 3094 3074 3072 3075 3071 3069 3066 3061 3058 3053 3048 3043 3037 3032 3028 3023 3019 3014 3009 3005 2999 2994 2989 2984 2978 2972 2966 2960 2954 2948 2943 2937 2932 2927 2922 2918 2913 2909 2905 2901 2898 2895 2893 2891 2889 2887 2885 2883 2881 2879 2877 2875 2874 2873 2872 2871 2870 2870 2869 2868 2867 2866
3138 3136 3135 3133 3131 3129 3126 3125 3124 3122 3121 3119 3117 3116 3114 3113 3112 3111 3111 3111 3106 3100 3098 3097 3084 3069 3069 3071 3068 3067 3064 3058 3054 3050 3044 3039 3033 3029 3024 3019 3015 3011 3006 3002 2996 2991 2986 2980 2975 2969 2963 2957 2952 2946 2940 2934 2929 2925 2920 2916 2912 2907 2903 2900 2896 2894 2892 2890 2888 2885 2883 2881 2879 2877 2875 2874 2873 2872 2871 2870 2870 2869 2868 2867 2866 2866
3136 3134 3133 3132 3130 3128 3126 3124 3123 3121 3118 3115 3114 3113 3112 3110 3108 3108 3108 3105 3100 3096 3091 3087 3080 3070 3065 3065 3064 3062 3059 3054 3049 3045 3040 3035 3030 3025 3020 3016 3012 3008 3003 2999 2993 2988 2983 2978 2973 2967 2961 2955 2950 2944 2938 2932 2927 2923 2918 2914 2910 2905 2902 2898 2895 2893 2891 2889 2886 2884 2882 2880 2878 2876 2875 2874 2872 2871 2871 2870 2869 2869 2868 2867 2866 2865
3134 3132 3131 3130 3127 3125 3123 3122 3122 3119 3115 3112 3111 3110 3108 3107 3105 3103 3101 3097 3096 3095 3085 3078 3079 3073 3063 3061 3061 3057 3054 3049 3044 3041 3036 3031 3027 3022 3018 3013 3009 3005 3001 2996 2990 2985 2980 2975 2970 2964 2958 2953 2947 2941 2936 2930 2925 2921 2916 2912 2908 2904 2900 2897 2894 2892 2890 2888 2885 2883 2881 2879 2877 2876 2875 2874 2872 2871 2870 2870 2869 2869 2868 2867 2866 2865
3131 3129 3128 3127 3125 3123 3122 3120 3119 3116 3113 3109 3108 3106 3105 3103 3101 3097 3094 3093 3094 3092 3081 3075 3076 3072 3063 3060 3058 3054 3051 3046 3041 3038 3033 3028 3025 3020 3016 3012 3007 3003 2998 2992 2987 2982 2978 2973 2967 2961 2956 2950 2945 2939 2933 2928 2923 2919 2915 2910 2907 2903 2899 2896 2893 2891 2889 2887 2885 2882 2880 2878 2877 2876 2875 2874 2873 2871 2870 2869 2869 2869 2868 2867 2866 2865
3129 3127 3125 3124 3122 3121 3120 3118 3116 3113 3110 3106 3103 3103 3101 3099 3097 3093 3090 3090 3089 3084 3078 3074 3071 3065 3061 3059 3055 3051 3049 3043 3038 3035 3031 3027 3023 3019 3015 3010 3004 2999 2994 2989 2984 2980 2975 2969 2964 2959 2954 2948 2942 2936 2931 2926 2921 2917 2913 2909 2905 2902 2898 2895 2892 2890 2888 2886 2884 2882 2879 2878 2877 2875 2874 2874 2873 2872 2870 2869 2869 2869 2868 2867 2866 2865
3127 3125 3123 3121 3118 3117 3117 3116 3114 3111 3107 3102 3099 3099 3099 3096 3094 3091 3088 3087 3085 3080 3075 3073 3067 3059 3057 3057 3052 3048 3045 3040 3036 3033 3029 3026 3021 3016 3011 3006 3000 2995 2990 2985 2981 2976 2971 2966 2961 2956 2951 2945 2939 2934 2929 2924 2919 2915 2911 2907 2904 2900 2897 2894 2891 2889 2887 2885 2883 2881 2879 2877 2876 2875 2874 2873 2873 2871 2870 2869 2869 2868 2867 2867 2866 2865
3126 3123 3121 3119 3116 3113 3113 3112 3110 3108 3104 3098 3096 3096 3096 3093 3091 3089 3086 3084 3082 3077 3072 3070 3063 3056 3054 3053 3049 3045 3042 3038 3034 3030 3027 3023 3018 3013 3007 3002 2997 2991 2987 2982 2978 2972 2967 2963 2958 2953 2948 2942 2937 2932 2927 2922 2917 2913 2909 2906 2903 2899 2896 2893 2891 2888 2886 2884 2883 2881 2879 2877 2876 2875 2874 2873 2872 2871 2870 2869 2868 2867 2867 2866 2865 2864
3123 3121 3119 3119 3114 3109 3109 3109 3107 3104 3099 3094 3092 3092 3091 3090 3088 3086 3084 3081 3078 3075 3070 3065 3059 3055 3053 3050 3045 3041 3039 3035 3030 3027 3024 3019 3014 3009 3003 2998 2993 2988 2984 2979 2974 2969 2965 2960 2956 2951 2945 2940 2935 2930 2925 2920 2915 2911 2908 2904 2901 2898 2895 2892 2889 2887 2885 2883 2882 2880 2878 2877 2876 2874 2873 2873 2872 2871 2870 2869 2868 2867 2866 2865 2864 2863
3121 3119 3118 3117 3112 3106 3106 3106 3104 3102 3097 3091 3090 3090 3088 3087 3085 3083 3080 3077 3074 3071 3066 3061 3057 3054 3051 3047 3042 3037 3034 3031 3027 3024 3021 3015 3010 3005 3000 2996 2991 2986 2981 2976 2971 2966 2962 2957 2953 2948 2942 2937 2933 2928 2923 2918 2914 2909 2906 2903 2899 2896 2893 2890 2888 2886 2884 2883 2881 2879 2878 2876 2875 2874 2873 2872 2871 2870 2869 2868 2867 2866 2866 2865 2863 2862
3118 3117 3116 3115 3111 3106 3104 3104 3102 3098 3093 3089 3087 3086 3085 3084 3082 3079 3075 3073 3072 3067 3062 3058 3055 3052 3048 3044 3040 3035 3030 3027 3025 3021 3017 3012 3007 3003 2998 2993 2988 2982 2977 2972 2968 2963 2959 2954 2949 2945 2940 2936 2931 2926 2921 2916 2912 2908 2904 2901 2898 2895 2892 2889 2887 2885 2883 2881 2880 2878 2877 2876 2874 2873 2872 2871 2870 2869 2869 2868 2867 2866 2865 2864 2863 2861
3116 3115 3113 3112 3110 3106 3103 3104 3101 3093 3087 3086 3086 3084 3082 3080 3078 3074 3069 3067 3067 3065 3060 3057 3053 3050 3045 3041 3037 3032 3026 3023 3021 3018 3015 3009 3004 3000 2995 2989 2984 2979 2974 2970 2965 2960 2956 2951 2947 2942 2938 2934 2929 2924 2920 2915 2911 2906 2902 2899 2896 2893 2890 2887 2885 2883 2881 2880 2879 2877 2876 2874 2873 2872 2871 2870 2869 2868 2868 2867 2866 2865 2864 2863 2862 2860
3114 3112 3112 3111 3109 3106 3103 3100 3096 3089 3084 3083 3082 3081 3080 3077 3075 3071 3064 3060 3062 3062 3058 3054 3050 3046 3042 3037 3033 3029 3023 3017 3014 3013 3010 3005 3000 2995 2990 2985 2981 2975 2971 2967 2962 2957 2953 2948 2944 2941 2936 2932 2927 2922 2917 2913 2908 2904 2900 2897 2893 2890 2888 2885 2883 2881 2880 2878 2877 2875 2874 2873 2872 2871 2870 2869 2868 2867 2866 2866 2865 2864 2863 2862 2861 2859
3112 3110 3110 3110 3107 3105 3102 3098 3094 3089 3083 3080 3079 3079 3077 3073 3071 3069 3062 3056 3057 3058 3055 3050 3046 3042 3038 3034 3029 3025 3019 3011 3007 3005 3003 2999 2995 2991 2986 2981 2977 2972 2968 2964 2959 2954 2950 2946 2942 2938 2934 2930 2925 2920 2916 2911 2906 2902 2898 2894 2891 2889 2886 2883 2881 2879 2878 2876 2875 2874 2872 2871 2870 2870 2869 2867 2866 2866 2865 2864 2863 2863 2862 2860 2859 2858
3110 3108 3108 3107 3104 3103 3102 3099 3096 3089 3081 3078 3078 3076 3074 3071 3068 3065 3059 3053 3052 3053 3050 3046 3042 3038 3034 3030 3025 3021 3016 3008 3001 2999 2998 2994 2990 2987 2982 2978 2974 2969 2965 2961 2956 2952 2948 2944 2940 2936 2931 2927 2922 2918 2913 2908 2904 2900 2896 2892 2889 2886 2884 2881 2879 2877 2876 2874 2873 2872 2870 2869 2868 2868 2867 2866 2865 2864 2863 2863 2862 2861 2860 2859 2858 2857
3108 3106 3105 3104 3101 3100 3099 3097 3092 3086 3079 3077 3077 3074 3071 3069 3066 3063 3058 3051 3048 3048 3046 3041 3038 3034 3031 3027 3022 3018 3014 3008 3001 2997 2994 2991 2987 2983 2979 2975 2971 2966 2962 2958 2954 2950 2946 2941 2937 2933 2929 2924 2919 2915 2911 2906 2902 2898 2894 2890 2887 2884 2881 2879 2877 2875 2873 2872 2870 2869 2868 2867 2866 2865 2865 2864 2863 2862 2861 2861 2860 2859 2858 2858 2857 2856
3105 3104 3103 3100 3098 3097 3096 3092 3087 3081 3077 3077 3076 3073 3070 3067 3064 3063 3059 3052 3048 3046 3043 3039 3035 3031 3027 3024 3019 3014 3011 3007 3001 2996 2992 2987 2983 2980 2975 2971 2967 2963 2959 2955 2951 2947 2943 2938 2934 2930 2926 2921 2916 2912 2908 2904 2899 2895 2891 2888 2884 2881 2879 2876 2874 2872 2870 2869 2867 2866 2865 2864 2864 2863 2862 2861 2860 2860 2859 2858 2858 2857 2857 2856 2855 2854
3103 3101 3099 3097 3096 3094 3092 3089 3084 3078 3075 3076 3074 3072 3069 3067 3064 3061 3058 3053 3048 3044 3040 3037 3033 3028 3024 3020 3015 3010 3006 3002 2998 2993 2988 2984 2980 2976 2972 2968 2964 2959 2955 2952 2948 2944 2940 2935 2931 2927 2922 2918 2914 2909 2905 2901 2897 2893 2889 2885 2882 2879 2876 2873 2871 2870 2868 2866 2864 2863 2862 2861 2861 2860 2859 2858 2858 2857 2856 2856 2855 2855 2854 2854 2853 2852
3101 3099 3096 3094 3094 3091 3089 3087 3084 3077 3074 3074 3073 3071 3068 3066 3063 3059 3053 3049 3046 3042 3037 3033 3029 3026 3021 3015 3011 3006 3001 2998 2994 2990 2985 2981 2976 2972 2968 2964 2960 2956 2952 2948 2944 2940 2936 2932 2928 2924 2919 2915 2911 2907 2902 2898 2894 2890 2887 2883 2879 2876 2873 2870 2868 2866 2865 2863 2861 2860 2859 2858 2857 2857 2856 2855 2855 2854 2854 2853 2853 2852 2852 2852 2851 2850
3099 3098 3095 3093 3092 3090 3086 3084 3082 3078 3075 3074 3073 3071 3068 3063 3059 3055 3049 3043 3040 3038 3034 3029 3024 3022 3018 3011 3006 3002 2997 2993 2990 2986 2981 2977 2972 2968 2963 2959 2956 2952 2948 2944 2940 2936 2933 2928 2924 2920 2916 2912 2908 2904 2900 2895 2891 2888 2884 2880 2877 2873 2870 2867 2865 2863 2862 2860 2858 2857 2855 2854 2854 2853 2853 2852 2852 2851 2850 2850 2850 2849 2849 2849 2848 2848
3097 3095 3093 3091 3090 3087 3083 3080 3079 3078 3076 3073 3069 3066 3064 3061 3057 3053 3047 3041 3036 3033 3030 3024 3019 3016 3013 3007 3001 2997 2993 2989 2985 2981 2977 2973 2968 2963 2959 2955 2951 2947 2943 2940 2936 2932 2928 2924 2920 2916 2913 2909 2905 2901 2897 2893 2888 2885 2881 2877 2874 2871 2867 2864 2862 2860 2858 2856 2855 2853 2852 2851 2850 2850 2849 2849 2848 2847 2847 2846 2846 2846 2846 2846 2845 2845
3095 3093 3091 3088 3086 3083 3080 3078 3078 3076 3073 3070 3067 3064 3061 3057 3054 3050 3044 3038 3033 3029 3025 3020 3015 3011 3008 3003 2997 2992 2988 2984 2980 2976 2972 2967 2962 2959 2954 2950 2947 2943 2939 2935 2932 2927 2923 2920 2916 2912 2908 2905 2902 2898 2894 2890 2885 2882 2878 2874 2871 2868 2864 2861 2858 2856 2854 2853 2851 2849 2848 2847 2846 2846 2845 2845 2845 2844 2843 2843 2842 2842 2842 2842 2842 2842
3093 3092 3089 3086 3084 3080 3076 3075 3075 3072 3068 3067 3065 3062 3059 3054 3050 3045 3040 3034 3029 3024 3020 3016 3011 3006 3002 2998 2993 2987 2983 2979 2974 2970 2966 2961 2957 2953 2949 2945 2941 2938 2934 2931 2927 2923 2919 2915 2911 2908 2904 2901 2898 2894 2890 2886 2882 2879 2875 2871 2868 2865 2861 2858 2855 2853 2851 2849 2847 2846 2844 2843 2842 2841 2841 2841 2841 2840 2840 2839 2839 2838 2838 2838 2838 2838
3091 3089 3087 3084 3082 3079 3074 3072 3071 3068 3067 3067 3063 3058 3054 3048 3043 3039 3035 3030 3025 3020 3016 3011 3006 3002 2997 2993 2988 2982 2976 2972 2969 2964 2959 2955 2951 2947 2944 2940 2936 2932 2928 2925 2922 2918 2914 2911 2907 2903 2900 2897 2893 2890 2886 2883 2879 2875 2872 2868 2864 2861 2858 2855 2852 2849 2847 2845 2843 2842 2840 2839 2838 2837 2836 2836 2836 2836 2835 2835 2835 2834 2834 2834 2834 2834
3090 3087 3085 3082 3079 3076 3073 3070 3066 3061 3060 3062 3060 3055 3050 3044 3038 3033 3030 3026 3021 3016 3010 3006 3002 2997 2992 2987 2982 2976 2970 2966 2962 2958 2952 2948 2945 2941 2938 2934 2930 2926 2923 2919 2916 2912 2909 2906 2902 2898 2895 2892 2888 2885 2882 2879 2875 2872 2868 2865 2861 2858 2855 2852 2849 2846 2843 2841 2839 2837 2836 2834 2833 2832 2832 2831 2831 2831 2831 2831 2830 2830 2830 2829 2830 2830
3088 3086 3083 3079 3075 3073 3070 3067 3063 3056 3052 3052 3051 3048 3044 3040 3033 3028 3024 3020 3016 3011 3005 3000 2995 2992 2987 2982 2976 2971 2965 2960 2957 2952 2946 2942 2939 2935 2931 2927 2923 2920 2917 2913 2910 2907 2903 2900 2896 2893 2890 2886 2883 2880 2877 2874 2871 2868 2864 2861 2858 2854 2851 2848 2845 2842 2840 2837 2835 2833 2831 2830 2829 2828 2827 2826 2826 2826 2826 2826 2826 2826 2825 2825 2825 2825
3087 3084 3081 3077 3073 3071 3067 3065 3062 3057 3051 3047 3045 3042 3039 3034 3029 3024 3020 3015 3011 3006 3001 2995 2989 2985 2981 2977 2972 2966 2960 2955 2951 2946 2941 2937 2933 2929 2924 2921 2917 2913 2910 2907 2903 2900 2897 2893 2890 2887 2884 2881 2878 2875 2872 2869 2866 2863 2860 2857 2854 2850 2847 2844 2841 2838 2836 2833 2831 2829 2827 2825 2824 2823 2822 2821 2821 2821 2821 2821 2821 2821 2821 2821 2821 2821